Year,Month,Day,Hour,Minute,Value (Times are PST for temperature in C)
2018,10,20,00,00,5.70
2018,10,20,00,01,5.70
2018,10,20,00,02,5.70
2018,10,20,00,03,5.70
2018,10,20,00,04,5.70
2018,10,20,00,05,5.60
2018,10,20,00,06,5.60
2018,10,20,00,07,5.60
2018,10,20,00,08,5.60
2018,10,20,00,09,5.60
2018,10,20,00,10,5.60
2018,10,20,00,11,5.60
2018,10,20,00,12,5.60
2018,10,20,00,13,5.60
2018,10,20,00,14,5.60
2018,10,20,00,15,5.60
2018,10,20,00,16,5.60
2018,10,20,00,17,5.60
2018,10,20,00,18,5.60
2018,10,20,00,19,5.60
2018,10,20,00,20,5.50
2018,10,20,00,21,5.50
2018,10,20,00,22,5.50
2018,10,20,00,23,5.50
2018,10,20,00,24,5.50
2018,10,20,00,25,5.40
2018,10,20,00,26,5.40
2018,10,20,00,27,5.40
2018,10,20,00,28,5.30
2018,10,20,00,29,5.30
2018,10,20,00,30,5.30
2018,10,20,00,31,5.30
2018,10,20,00,32,5.30
2018,10,20,00,33,5.30
2018,10,20,00,34,5.30
2018,10,20,00,35,5.30
2018,10,20,00,36,5.30
2018,10,20,00,37,5.30
2018,10,20,00,38,5.30
2018,10,20,00,39,5.30
2018,10,20,00,40,5.30
2018,10,20,00,41,5.30
2018,10,20,00,42,5.30
2018,10,20,00,43,5.20
2018,10,20,00,44,5.20
2018,10,20,00,45,5.20
2018,10,20,00,46,5.20
2018,10,20,00,47,5.10
2018,10,20,00,48,5.10
2018,10,20,00,49,5.10
2018,10,20,00,50,5.10
2018,10,20,00,51,5.10
2018,10,20,00,52,5.10
2018,10,20,00,53,5.10
2018,10,20,00,54,5.10
2018,10,20,00,55,5.10
2018,10,20,00,56,5.10
2018,10,20,00,57,5.00
2018,10,20,00,58,4.90
2018,10,20,00,59,4.90
2018,10,20,01,00,4.90
2018,10,20,01,01,4.90
2018,10,20,01,02,5.00
2018,10,20,01,03,5.10
2018,10,20,01,04,5.10
2018,10,20,01,05,5.10
2018,10,20,01,06,5.10
2018,10,20,01,07,4.90
2018,10,20,01,08,4.90
2018,10,20,01,09,4.90
2018,10,20,01,10,4.90
2018,10,20,01,11,4.90
2018,10,20,01,12,4.90
2018,10,20,01,13,4.90
2018,10,20,01,14,4.90
2018,10,20,01,15,4.80
2018,10,20,01,16,4.80
2018,10,20,01,17,4.80
2018,10,20,01,18,4.80
2018,10,20,01,19,4.80
2018,10,20,01,20,4.80
2018,10,20,01,21,4.80
2018,10,20,01,22,4.80
2018,10,20,01,23,4.90
2018,10,20,01,24,4.90
2018,10,20,01,25,5.00
2018,10,20,01,26,5.10
2018,10,20,01,27,5.10
2018,10,20,01,28,5.10
2018,10,20,01,29,5.10
2018,10,20,01,30,5.10
2018,10,20,01,31,5.10
2018,10,20,01,32,5.10
2018,10,20,01,33,5.10
2018,10,20,01,34,5.10
2018,10,20,01,35,5.10
2018,10,20,01,36,5.10
2018,10,20,01,37,5.10
2018,10,20,01,38,5.10
2018,10,20,01,39,5.10
2018,10,20,01,40,5.10
2018,10,20,01,41,5.10
2018,10,20,01,42,5.10
2018,10,20,01,43,5.20
2018,10,20,01,44,5.20
2018,10,20,01,45,5.20
2018,10,20,01,46,5.20
2018,10,20,01,47,5.20
2018,10,20,01,48,5.20
2018,10,20,01,49,5.20
2018,10,20,01,50,5.20
2018,10,20,01,51,5.30
2018,10,20,01,52,5.30
2018,10,20,01,53,5.30
2018,10,20,01,54,5.30
2018,10,20,01,55,5.30
2018,10,20,01,56,5.20
2018,10,20,01,57,5.10
2018,10,20,01,58,5.10
2018,10,20,01,59,5.10
2018,10,20,02,00,5.00
2018,10,20,02,01,4.90
2018,10,20,02,02,4.80
2018,10,20,02,03,4.80
2018,10,20,02,04,4.70
2018,10,20,02,05,4.70
2018,10,20,02,06,4.60
2018,10,20,02,07,4.60
2018,10,20,02,08,4.60
2018,10,20,02,09,4.60
2018,10,20,02,10,4.60
2018,10,20,02,11,4.60
2018,10,20,02,12,4.60
2018,10,20,02,13,4.60
2018,10,20,02,14,4.60
2018,10,20,02,15,4.60
2018,10,20,02,16,4.60
2018,10,20,02,17,4.60
2018,10,20,02,18,4.60
2018,10,20,02,19,4.60
2018,10,20,02,20,4.60
2018,10,20,02,21,4.60
2018,10,20,02,22,4.60
2018,10,20,02,23,4.60
2018,10,20,02,24,4.60
2018,10,20,02,25,4.60
2018,10,20,02,26,4.60
2018,10,20,02,27,4.60
2018,10,20,02,28,4.60
2018,10,20,02,29,4.60
2018,10,20,02,30,4.60
2018,10,20,02,31,4.60
2018,10,20,02,32,4.60
2018,10,20,02,33,4.60
2018,10,20,02,34,4.60
2018,10,20,02,35,4.60
2018,10,20,02,36,4.60
2018,10,20,02,37,4.60
2018,10,20,02,38,4.60
2018,10,20,02,39,4.60
2018,10,20,02,40,4.60
2018,10,20,02,41,4.60
2018,10,20,02,42,4.60
2018,10,20,02,43,4.60
2018,10,20,02,44,4.60
2018,10,20,02,45,4.60
2018,10,20,02,46,4.60
2018,10,20,02,47,4.60
2018,10,20,02,48,4.60
2018,10,20,02,49,4.60
2018,10,20,02,50,4.50
2018,10,20,02,51,4.50
2018,10,20,02,52,4.50
2018,10,20,02,53,4.50
2018,10,20,02,54,4.50
2018,10,20,02,55,4.50
2018,10,20,02,56,4.50
2018,10,20,02,57,4.50
2018,10,20,02,58,4.50
2018,10,20,02,59,4.40
2018,10,20,03,00,4.40
2018,10,20,03,01,4.40
2018,10,20,03,02,4.40
2018,10,20,03,03,4.30
2018,10,20,03,04,4.30
2018,10,20,03,05,4.30
2018,10,20,03,06,4.30
2018,10,20,03,07,4.20
2018,10,20,03,08,4.20
2018,10,20,03,09,4.20
2018,10,20,03,10,4.20
2018,10,20,03,11,4.20
2018,10,20,03,12,4.20
2018,10,20,03,13,4.20
2018,10,20,03,14,4.20
2018,10,20,03,15,4.20
2018,10,20,03,16,4.20
2018,10,20,03,17,4.20
2018,10,20,03,18,4.20
2018,10,20,03,19,4.20
2018,10,20,03,20,4.20
2018,10,20,03,21,4.20
2018,10,20,03,22,4.20
2018,10,20,03,23,4.20
2018,10,20,03,24,4.10
2018,10,20,03,25,4.10
2018,10,20,03,26,4.10
2018,10,20,03,27,4.10
2018,10,20,03,28,4.10
2018,10,20,03,29,4.00
2018,10,20,03,30,4.00
2018,10,20,03,31,4.00
2018,10,20,03,32,4.00
2018,10,20,03,33,4.00
2018,10,20,03,34,4.00
2018,10,20,03,35,4.00
2018,10,20,03,36,4.00
2018,10,20,03,37,4.00
2018,10,20,03,38,4.00
2018,10,20,03,39,4.00
2018,10,20,03,40,4.00
2018,10,20,03,41,4.00
2018,10,20,03,42,4.00
2018,10,20,03,43,4.00
2018,10,20,03,44,4.00
2018,10,20,03,45,3.90
2018,10,20,03,46,3.90
2018,10,20,03,47,3.90
2018,10,20,03,48,3.90
2018,10,20,03,49,3.90
2018,10,20,03,50,3.90
2018,10,20,03,51,3.90
2018,10,20,03,52,3.90
2018,10,20,03,53,3.90
2018,10,20,03,54,3.90
2018,10,20,03,55,3.90
2018,10,20,03,56,3.90
2018,10,20,03,57,3.90
2018,10,20,03,58,3.90
2018,10,20,03,59,3.90
2018,10,20,04,00,3.90
2018,10,20,04,01,3.90
2018,10,20,04,02,3.90
2018,10,20,04,03,3.90
2018,10,20,04,04,3.90
2018,10,20,04,05,3.90
2018,10,20,04,06,3.80
2018,10,20,04,07,3.80
2018,10,20,04,08,3.80
2018,10,20,04,09,3.80
2018,10,20,04,10,3.80
2018,10,20,04,11,3.80
2018,10,20,04,12,3.80
2018,10,20,04,13,3.80
2018,10,20,04,14,3.70
2018,10,20,04,15,3.70
2018,10,20,04,16,3.70
2018,10,20,04,17,3.70
2018,10,20,04,18,3.70
2018,10,20,04,19,3.70
2018,10,20,04,20,3.70
2018,10,20,04,21,3.70
2018,10,20,04,22,3.70
2018,10,20,04,23,3.70
2018,10,20,04,24,3.70
2018,10,20,04,25,3.60
2018,10,20,04,26,3.60
2018,10,20,04,27,3.60
2018,10,20,04,28,3.60
2018,10,20,04,29,3.60
2018,10,20,04,30,3.60
2018,10,20,04,31,3.60
2018,10,20,04,32,3.60
2018,10,20,04,33,3.60
2018,10,20,04,34,3.60
2018,10,20,04,35,3.60
2018,10,20,04,36,3.60
2018,10,20,04,37,3.60
2018,10,20,04,38,3.60
2018,10,20,04,39,3.60
2018,10,20,04,40,3.70
2018,10,20,04,41,3.70
2018,10,20,04,42,3.70
2018,10,20,04,43,3.70
2018,10,20,04,44,3.70
2018,10,20,04,45,3.70
2018,10,20,04,46,3.60
2018,10,20,04,47,3.60
2018,10,20,04,48,3.60
2018,10,20,04,49,3.60
2018,10,20,04,50,3.50
2018,10,20,04,51,3.50
2018,10,20,04,52,3.50
2018,10,20,04,53,3.50
2018,10,20,04,54,3.40
2018,10,20,04,55,3.40
2018,10,20,04,56,3.40
2018,10,20,04,57,3.40
2018,10,20,04,58,3.40
2018,10,20,04,59,3.40
2018,10,20,05,00,3.40
2018,10,20,05,01,3.30
2018,10,20,05,02,3.30
2018,10,20,05,03,3.30
2018,10,20,05,04,3.30
2018,10,20,05,05,3.30
2018,10,20,05,06,3.30
2018,10,20,05,07,3.30
2018,10,20,05,08,3.30
2018,10,20,05,09,3.30
2018,10,20,05,10,3.30
2018,10,20,05,11,3.30
2018,10,20,05,12,3.30
2018,10,20,05,13,3.30
2018,10,20,05,14,3.40
2018,10,20,05,15,3.40
2018,10,20,05,16,3.40
2018,10,20,05,17,3.40
2018,10,20,05,18,3.40
2018,10,20,05,19,3.40
2018,10,20,05,20,3.40
2018,10,20,05,21,3.40
2018,10,20,05,22,3.40
2018,10,20,05,23,3.40
2018,10,20,05,24,3.40
2018,10,20,05,25,3.40
2018,10,20,05,26,3.40
2018,10,20,05,27,3.40
2018,10,20,05,28,3.40
2018,10,20,05,29,3.40
2018,10,20,05,30,3.40
2018,10,20,05,31,3.50
2018,10,20,05,32,3.50
2018,10,20,05,33,3.50
2018,10,20,05,34,3.60
2018,10,20,05,35,3.60
2018,10,20,05,36,3.60
2018,10,20,05,37,3.50
2018,10,20,05,38,3.50
2018,10,20,05,39,3.50
2018,10,20,05,40,3.50
2018,10,20,05,41,3.50
2018,10,20,05,42,3.50
2018,10,20,05,43,3.50
2018,10,20,05,44,3.40
2018,10,20,05,45,3.40
2018,10,20,05,46,3.40
2018,10,20,05,47,3.40
2018,10,20,05,48,3.40
2018,10,20,05,49,3.30
2018,10,20,05,50,3.30
2018,10,20,05,51,3.30
2018,10,20,05,52,3.30
2018,10,20,05,53,3.30
2018,10,20,05,54,3.30
2018,10,20,05,55,3.30
2018,10,20,05,56,3.30
2018,10,20,05,57,3.30
2018,10,20,05,58,3.30
2018,10,20,05,59,3.30
2018,10,20,06,00,3.30
2018,10,20,06,01,3.30
2018,10,20,06,02,3.30
2018,10,20,06,03,3.30
2018,10,20,06,04,3.30
2018,10,20,06,05,3.30
2018,10,20,06,06,3.30
2018,10,20,06,07,3.30
2018,10,20,06,08,3.30
2018,10,20,06,09,3.30
2018,10,20,06,10,3.30
2018,10,20,06,11,3.30
2018,10,20,06,12,3.30
2018,10,20,06,13,3.30
2018,10,20,06,14,3.30
2018,10,20,06,15,3.30
2018,10,20,06,16,3.30
2018,10,20,06,17,3.30
2018,10,20,06,18,3.30
2018,10,20,06,19,3.30
2018,10,20,06,20,3.40
2018,10,20,06,21,3.40
2018,10,20,06,22,3.50
2018,10,20,06,23,3.50
2018,10,20,06,24,3.60
2018,10,20,06,25,3.60
2018,10,20,06,26,3.60
2018,10,20,06,27,3.70
2018,10,20,06,28,3.70
2018,10,20,06,29,3.70
2018,10,20,06,30,3.70
2018,10,20,06,31,3.80
2018,10,20,06,32,3.80
2018,10,20,06,33,3.80
2018,10,20,06,34,3.80
2018,10,20,06,35,3.80
2018,10,20,06,36,3.80
2018,10,20,06,37,3.80
2018,10,20,06,38,3.80
2018,10,20,06,39,3.80
2018,10,20,06,40,3.80
2018,10,20,06,41,3.80
2018,10,20,06,42,3.80
2018,10,20,06,43,3.80
2018,10,20,06,44,3.80
2018,10,20,06,45,3.80
2018,10,20,06,46,3.80
2018,10,20,06,47,3.80
2018,10,20,06,48,3.80
2018,10,20,06,49,3.80
2018,10,20,06,50,3.80
2018,10,20,06,51,3.80
2018,10,20,06,52,3.80
2018,10,20,06,53,3.80
2018,10,20,06,54,3.80
2018,10,20,06,55,3.90
2018,10,20,06,56,3.90
2018,10,20,06,57,3.90
2018,10,20,06,58,4.00
2018,10,20,06,59,4.00
2018,10,20,07,00,4.00
2018,10,20,07,01,4.00
2018,10,20,07,02,4.10
2018,10,20,07,03,4.10
2018,10,20,07,04,4.10
2018,10,20,07,05,4.20
2018,10,20,07,06,4.20
2018,10,20,07,07,4.20
2018,10,20,07,08,4.20
2018,10,20,07,09,4.20
2018,10,20,07,10,4.20
2018,10,20,07,11,4.20
2018,10,20,07,12,4.20
2018,10,20,07,13,4.30
2018,10,20,07,14,4.30
2018,10,20,07,15,4.30
2018,10,20,07,16,4.30
2018,10,20,07,17,4.30
2018,10,20,07,18,4.40
2018,10,20,07,19,4.40
2018,10,20,07,20,4.40
2018,10,20,07,21,4.40
2018,10,20,07,22,4.40
2018,10,20,07,23,4.40
2018,10,20,07,24,4.40
2018,10,20,07,25,4.40
2018,10,20,07,26,4.40
2018,10,20,07,27,4.40
2018,10,20,07,28,4.40
2018,10,20,07,29,4.40
2018,10,20,07,30,4.40
2018,10,20,07,31,4.40
2018,10,20,07,32,4.40
2018,10,20,07,33,4.30
2018,10,20,07,34,4.30
2018,10,20,07,35,4.30
2018,10,20,07,36,4.20
2018,10,20,07,37,4.20
2018,10,20,07,38,4.20
2018,10,20,07,39,4.20
2018,10,20,07,40,4.20
2018,10,20,07,41,4.20
2018,10,20,07,42,4.20
2018,10,20,07,43,4.20
2018,10,20,07,44,4.20
2018,10,20,07,45,4.20
2018,10,20,07,46,4.20
2018,10,20,07,47,4.20
2018,10,20,07,48,4.20
2018,10,20,07,49,4.20
2018,10,20,07,50,4.20
2018,10,20,07,51,4.20
2018,10,20,07,52,4.20
2018,10,20,07,53,4.30
2018,10,20,07,54,4.30
2018,10,20,07,55,4.30
2018,10,20,07,56,4.30
2018,10,20,07,57,4.30
2018,10,20,07,58,4.30
2018,10,20,07,59,4.40
2018,10,20,08,00,4.40
2018,10,20,08,01,4.40
2018,10,20,08,02,4.50
2018,10,20,08,03,4.50
2018,10,20,08,04,4.50
2018,10,20,08,05,4.60
2018,10,20,08,06,4.60
2018,10,20,08,07,4.60
2018,10,20,08,08,4.60
2018,10,20,08,09,4.60
2018,10,20,08,10,4.70
2018,10,20,08,11,4.70
2018,10,20,08,12,4.70
2018,10,20,08,13,4.80
2018,10,20,08,14,4.80
2018,10,20,08,15,4.80
2018,10,20,08,16,4.80
2018,10,20,08,17,4.80
2018,10,20,08,18,4.90
2018,10,20,08,19,4.90
2018,10,20,08,20,4.90
2018,10,20,08,21,4.90
2018,10,20,08,22,4.90
2018,10,20,08,23,4.90
2018,10,20,08,24,4.90
2018,10,20,08,25,4.90
2018,10,20,08,26,4.90
2018,10,20,08,27,4.90
2018,10,20,08,28,4.90
2018,10,20,08,29,4.90
2018,10,20,08,30,4.90
2018,10,20,08,31,4.90
2018,10,20,08,32,4.90
2018,10,20,08,33,5.00
2018,10,20,08,34,5.10
2018,10,20,08,35,5.10
2018,10,20,08,36,5.10
2018,10,20,08,37,5.10
2018,10,20,08,38,5.10
2018,10,20,08,39,5.10
2018,10,20,08,40,5.10
2018,10,20,08,41,5.20
2018,10,20,08,42,5.20
2018,10,20,08,43,5.20
2018,10,20,08,44,5.20
2018,10,20,08,45,5.30
2018,10,20,08,46,5.30
2018,10,20,08,47,5.30
2018,10,20,08,48,5.30
2018,10,20,08,49,5.30
2018,10,20,08,50,5.40
2018,10,20,08,51,5.40
2018,10,20,08,52,5.50
2018,10,20,08,53,5.50
2018,10,20,08,54,5.60
2018,10,20,08,55,5.70
2018,10,20,08,56,5.70
2018,10,20,08,57,5.70
2018,10,20,08,58,5.80
2018,10,20,08,59,5.80
2018,10,20,09,00,5.90
2018,10,20,09,01,5.90
2018,10,20,09,02,6.00
2018,10,20,09,03,6.00
2018,10,20,09,04,6.10
2018,10,20,09,05,6.10
2018,10,20,09,06,6.20
2018,10,20,09,07,6.20
2018,10,20,09,08,6.20
2018,10,20,09,09,6.30
2018,10,20,09,10,6.30
2018,10,20,09,11,6.40
2018,10,20,09,12,6.40
2018,10,20,09,13,6.50
2018,10,20,09,14,6.60
2018,10,20,09,15,6.60
2018,10,20,09,16,6.70
2018,10,20,09,17,6.80
2018,10,20,09,18,6.80
2018,10,20,09,19,6.90
2018,10,20,09,20,7.00
2018,10,20,09,21,7.10
2018,10,20,09,22,7.10
2018,10,20,09,23,7.20
2018,10,20,09,24,7.30
2018,10,20,09,25,7.30
2018,10,20,09,26,7.40
2018,10,20,09,27,7.50
2018,10,20,09,28,7.50
2018,10,20,09,29,7.60
2018,10,20,09,30,7.60
2018,10,20,09,31,7.70
2018,10,20,09,32,7.80
2018,10,20,09,33,7.80
2018,10,20,09,34,7.90
2018,10,20,09,35,8.00
2018,10,20,09,36,8.00
2018,10,20,09,37,8.10
2018,10,20,09,38,8.20
2018,10,20,09,39,8.20
2018,10,20,09,40,8.30
2018,10,20,09,41,8.30
2018,10,20,09,42,8.40
2018,10,20,09,43,8.40
2018,10,20,09,44,8.50
2018,10,20,09,45,8.50
2018,10,20,09,46,8.60
2018,10,20,09,47,8.70
2018,10,20,09,48,8.70
2018,10,20,09,49,8.80
2018,10,20,09,50,8.80
2018,10,20,09,51,8.90
2018,10,20,09,52,9.00
2018,10,20,09,53,9.00
2018,10,20,09,54,9.10
2018,10,20,09,55,9.20
2018,10,20,09,56,9.20
2018,10,20,09,57,9.20
2018,10,20,09,58,9.30
2018,10,20,09,59,9.30
2018,10,20,10,00,9.30
2018,10,20,10,01,9.30
2018,10,20,10,02,9.40
2018,10,20,10,03,9.40
2018,10,20,10,04,9.40
2018,10,20,10,05,9.40
2018,10,20,10,06,9.40
2018,10,20,10,07,9.40
2018,10,20,10,08,9.50
2018,10,20,10,09,9.50
2018,10,20,10,10,9.50
2018,10,20,10,11,9.60
2018,10,20,10,12,9.60
2018,10,20,10,13,9.60
2018,10,20,10,14,9.60
2018,10,20,10,15,9.60
2018,10,20,10,16,9.60
2018,10,20,10,17,9.70
2018,10,20,10,18,9.70
2018,10,20,10,19,9.70
2018,10,20,10,20,9.70
2018,10,20,10,21,9.70
2018,10,20,10,22,9.70
2018,10,20,10,23,9.70
2018,10,20,10,24,9.70
2018,10,20,10,25,9.70
2018,10,20,10,26,9.70
2018,10,20,10,27,9.70
2018,10,20,10,28,9.70
2018,10,20,10,29,9.70
2018,10,20,10,30,9.70
2018,10,20,10,31,9.80
2018,10,20,10,32,9.80
2018,10,20,10,33,9.80
2018,10,20,10,34,9.80
2018,10,20,10,35,9.80
2018,10,20,10,36,9.80
2018,10,20,10,37,9.80
2018,10,20,10,38,9.80
2018,10,20,10,39,9.90
2018,10,20,10,40,9.90
2018,10,20,10,41,9.90
2018,10,20,10,42,9.90
2018,10,20,10,43,9.90
2018,10,20,10,44,9.90
2018,10,20,10,45,9.90
2018,10,20,10,46,9.90
2018,10,20,10,47,9.90
2018,10,20,10,48,10.00
2018,10,20,10,49,10.10
2018,10,20,10,50,10.10
2018,10,20,10,51,10.10
2018,10,20,10,52,10.10
2018,10,20,10,53,10.10
2018,10,20,10,54,10.10
2018,10,20,10,55,10.10
2018,10,20,10,56,10.20
2018,10,20,10,57,10.20
2018,10,20,10,58,10.20
2018,10,20,10,59,10.10
2018,10,20,11,00,10.10
2018,10,20,11,01,10.10
2018,10,20,11,02,10.10
2018,10,20,11,03,10.20
2018,10,20,11,04,10.20
2018,10,20,11,05,10.20
2018,10,20,11,06,10.20
2018,10,20,11,07,10.20
2018,10,20,11,08,10.10
2018,10,20,11,09,10.10
2018,10,20,11,10,10.10
2018,10,20,11,11,10.10
2018,10,20,11,12,10.10
2018,10,20,11,13,10.20
2018,10,20,11,14,10.20
2018,10,20,11,15,10.20
2018,10,20,11,16,10.20
2018,10,20,11,17,10.30
2018,10,20,11,18,10.30
2018,10,20,11,19,10.40
2018,10,20,11,20,10.40
2018,10,20,11,21,10.40
2018,10,20,11,22,10.40
2018,10,20,11,23,10.40
2018,10,20,11,24,10.40
2018,10,20,11,25,10.40
2018,10,20,11,26,10.50
2018,10,20,11,27,10.60
2018,10,20,11,28,10.60
2018,10,20,11,29,10.60
2018,10,20,11,30,10.60
2018,10,20,11,31,10.60
2018,10,20,11,32,10.60
2018,10,20,11,33,10.60
2018,10,20,11,34,10.60
2018,10,20,11,35,10.50
2018,10,20,11,36,10.40
2018,10,20,11,37,10.40
2018,10,20,11,38,10.40
2018,10,20,11,39,10.40
2018,10,20,11,40,10.40
2018,10,20,11,41,10.40
2018,10,20,11,42,10.40
2018,10,20,11,43,10.40
2018,10,20,11,44,10.40
2018,10,20,11,45,10.40
2018,10,20,11,46,10.40
2018,10,20,11,47,10.40
2018,10,20,11,48,10.50
2018,10,20,11,49,10.60
2018,10,20,11,50,10.60
2018,10,20,11,51,10.70
2018,10,20,11,52,10.80
2018,10,20,11,53,10.80
2018,10,20,11,54,10.80
2018,10,20,11,55,10.90
2018,10,20,11,56,10.90
2018,10,20,11,57,10.90
2018,10,20,11,58,10.90
2018,10,20,11,59,10.90
2018,10,20,12,00,11.00
2018,10,20,12,01,11.10
2018,10,20,12,02,11.10
2018,10,20,12,03,11.10
2018,10,20,12,04,11.10
2018,10,20,12,05,11.20
2018,10,20,12,06,11.30
2018,10,20,12,07,11.30
2018,10,20,12,08,11.30
2018,10,20,12,09,11.30
2018,10,20,12,10,11.40
2018,10,20,12,11,11.50
2018,10,20,12,12,11.60
2018,10,20,12,13,11.60
2018,10,20,12,14,11.50
2018,10,20,12,15,11.40
2018,10,20,12,16,11.30
2018,10,20,12,17,11.30
2018,10,20,12,18,11.30
2018,10,20,12,19,11.40
2018,10,20,12,20,11.40
2018,10,20,12,21,11.50
2018,10,20,12,22,11.50
2018,10,20,12,23,11.40
2018,10,20,12,24,11.40
2018,10,20,12,25,11.40
2018,10,20,12,26,11.40
2018,10,20,12,27,11.40
2018,10,20,12,28,11.40
2018,10,20,12,29,11.50
2018,10,20,12,30,11.60
2018,10,20,12,31,11.70
2018,10,20,12,32,11.70
2018,10,20,12,33,11.70
2018,10,20,12,34,11.80
2018,10,20,12,35,11.80
2018,10,20,12,36,11.90
2018,10,20,12,37,11.90
2018,10,20,12,38,11.90
2018,10,20,12,39,11.90
2018,10,20,12,40,12.00
2018,10,20,12,41,12.10
2018,10,20,12,42,12.20
2018,10,20,12,43,12.30
2018,10,20,12,44,12.30
2018,10,20,12,45,12.30
2018,10,20,12,46,12.30
2018,10,20,12,47,12.30
2018,10,20,12,48,12.40
2018,10,20,12,49,12.40
2018,10,20,12,50,12.50
2018,10,20,12,51,12.50
2018,10,20,12,52,12.50
2018,10,20,12,53,12.40
2018,10,20,12,54,12.40
2018,10,20,12,55,12.40
2018,10,20,12,56,12.50
2018,10,20,12,57,12.50
2018,10,20,12,58,12.50
2018,10,20,12,59,12.60
2018,10,20,13,00,12.60
2018,10,20,13,01,12.70
2018,10,20,13,02,12.70
2018,10,20,13,03,12.80
2018,10,20,13,04,12.90
2018,10,20,13,05,13.00
2018,10,20,13,06,13.00
2018,10,20,13,07,13.10
2018,10,20,13,08,13.00
2018,10,20,13,09,13.00
2018,10,20,13,10,13.00
2018,10,20,13,11,13.10
2018,10,20,13,12,13.20
2018,10,20,13,13,13.20
2018,10,20,13,14,13.20
2018,10,20,13,15,13.20
2018,10,20,13,16,13.20
2018,10,20,13,17,13.20
2018,10,20,13,18,13.20
2018,10,20,13,19,13.20
2018,10,20,13,20,13.20
2018,10,20,13,21,13.20
2018,10,20,13,22,13.30
2018,10,20,13,23,13.30
2018,10,20,13,24,13.30
2018,10,20,13,25,13.40
2018,10,20,13,26,13.50
2018,10,20,13,27,13.50
2018,10,20,13,28,13.40
2018,10,20,13,29,13.40
2018,10,20,13,30,13.40
2018,10,20,13,31,13.50
2018,10,20,13,32,13.50
2018,10,20,13,33,13.50
2018,10,20,13,34,13.50
2018,10,20,13,35,13.60
2018,10,20,13,36,13.60
2018,10,20,13,37,13.70
2018,10,20,13,38,13.80
2018,10,20,13,39,13.90
2018,10,20,13,40,13.90
2018,10,20,13,41,14.00
2018,10,20,13,42,14.10
2018,10,20,13,43,14.00
2018,10,20,13,44,14.00
2018,10,20,13,45,14.00
2018,10,20,13,46,14.00
2018,10,20,13,47,14.10
2018,10,20,13,48,14.10
2018,10,20,13,49,14.10
2018,10,20,13,50,14.20
2018,10,20,13,51,14.20
2018,10,20,13,52,14.20
2018,10,20,13,53,14.30
2018,10,20,13,54,14.30
2018,10,20,13,55,14.30
2018,10,20,13,56,14.40
2018,10,20,13,57,14.40
2018,10,20,13,58,14.40
2018,10,20,13,59,14.50
2018,10,20,14,00,14.50
2018,10,20,14,01,14.50
2018,10,20,14,02,14.50
2018,10,20,14,03,14.60
2018,10,20,14,04,14.60
2018,10,20,14,05,14.60
2018,10,20,14,06,14.60
2018,10,20,14,07,14.60
2018,10,20,14,08,14.60
2018,10,20,14,09,14.60
2018,10,20,14,10,14.60
2018,10,20,14,11,14.60
2018,10,20,14,12,14.60
2018,10,20,14,13,14.60
2018,10,20,14,14,14.70
2018,10,20,14,15,14.70
2018,10,20,14,16,14.70
2018,10,20,14,17,14.70
2018,10,20,14,18,14.70
2018,10,20,14,19,14.80
2018,10,20,14,20,14.80
2018,10,20,14,21,14.90
2018,10,20,14,22,14.90
2018,10,20,14,23,14.90
2018,10,20,14,24,14.90
2018,10,20,14,25,14.90
2018,10,20,14,26,14.90
2018,10,20,14,27,14.80
2018,10,20,14,28,14.80
2018,10,20,14,29,14.80
2018,10,20,14,30,14.80
2018,10,20,14,31,14.80
2018,10,20,14,32,14.80
2018,10,20,14,33,14.80
2018,10,20,14,34,14.80
2018,10,20,14,35,14.80
2018,10,20,14,36,14.80
2018,10,20,14,37,14.80
2018,10,20,14,38,14.80
2018,10,20,14,39,14.80
2018,10,20,14,40,14.90
2018,10,20,14,41,14.90
2018,10,20,14,42,14.80
2018,10,20,14,43,14.80
2018,10,20,14,44,14.80
2018,10,20,14,45,14.70
2018,10,20,14,46,14.70
2018,10,20,14,47,14.70
2018,10,20,14,48,14.70
2018,10,20,14,49,14.80
2018,10,20,14,50,14.80
2018,10,20,14,51,14.80
2018,10,20,14,52,14.90
2018,10,20,14,53,14.90
2018,10,20,14,54,14.80
2018,10,20,14,55,14.80
2018,10,20,14,56,14.80
2018,10,20,14,57,14.80
2018,10,20,14,58,14.80
2018,10,20,14,59,14.80
2018,10,20,15,00,14.80
2018,10,20,15,01,14.80
2018,10,20,15,02,14.80
2018,10,20,15,03,14.80
2018,10,20,15,04,14.80
2018,10,20,15,05,14.90
2018,10,20,15,06,15.00
2018,10,20,15,07,15.00
2018,10,20,15,08,15.00
2018,10,20,15,09,15.00
2018,10,20,15,10,14.90
2018,10,20,15,11,14.80
2018,10,20,15,12,14.80
2018,10,20,15,13,14.80
2018,10,20,15,14,14.80
2018,10,20,15,15,14.80
2018,10,20,15,16,14.80
2018,10,20,15,17,14.80
2018,10,20,15,18,14.80
2018,10,20,15,19,14.80
2018,10,20,15,20,14.80
2018,10,20,15,21,14.80
2018,10,20,15,22,14.80
2018,10,20,15,23,14.80
2018,10,20,15,24,14.80
2018,10,20,15,25,14.80
2018,10,20,15,26,14.80
2018,10,20,15,27,14.80
2018,10,20,15,28,14.80
2018,10,20,15,29,14.80
2018,10,20,15,30,14.80
2018,10,20,15,31,14.80
2018,10,20,15,32,14.80
2018,10,20,15,33,14.80
2018,10,20,15,34,14.80
2018,10,20,15,35,14.80
2018,10,20,15,36,14.80
2018,10,20,15,37,14.80
2018,10,20,15,38,14.80
2018,10,20,15,39,14.90
2018,10,20,15,40,14.90
2018,10,20,15,41,15.00
2018,10,20,15,42,15.00
2018,10,20,15,43,15.00
2018,10,20,15,44,15.00
2018,10,20,15,45,14.90
2018,10,20,15,46,14.80
2018,10,20,15,47,14.80
2018,10,20,15,48,14.80
2018,10,20,15,49,14.90
2018,10,20,15,50,14.90
2018,10,20,15,51,14.90
2018,10,20,15,52,14.90
2018,10,20,15,53,14.90
2018,10,20,15,54,15.00
2018,10,20,15,55,15.00
2018,10,20,15,56,15.00
2018,10,20,15,57,14.90
2018,10,20,15,58,14.80
2018,10,20,15,59,14.80
2018,10,20,16,00,14.80
2018,10,20,16,01,14.80
2018,10,20,16,02,14.70
2018,10,20,16,03,14.70
2018,10,20,16,04,14.70
2018,10,20,16,05,14.60
2018,10,20,16,06,14.60
2018,10,20,16,07,14.60
2018,10,20,16,08,14.60
2018,10,20,16,09,14.60
2018,10,20,16,10,14.60
2018,10,20,16,11,14.60
2018,10,20,16,12,14.60
2018,10,20,16,13,14.60
2018,10,20,16,14,14.60
2018,10,20,16,15,14.60
2018,10,20,16,16,14.60
2018,10,20,16,17,14.50
2018,10,20,16,18,14.50
2018,10,20,16,19,14.60
2018,10,20,16,20,14.60
2018,10,20,16,21,14.70
2018,10,20,16,22,14.80
2018,10,20,16,23,14.80
2018,10,20,16,24,14.80
2018,10,20,16,25,14.80
2018,10,20,16,26,14.90
2018,10,20,16,27,14.90
2018,10,20,16,28,14.90
2018,10,20,16,29,14.90
2018,10,20,16,30,14.90
2018,10,20,16,31,14.90
2018,10,20,16,32,14.90
2018,10,20,16,33,14.80
2018,10,20,16,34,14.80
2018,10,20,16,35,14.80
2018,10,20,16,36,14.70
2018,10,20,16,37,14.70
2018,10,20,16,38,14.70
2018,10,20,16,39,14.70
2018,10,20,16,40,14.70
2018,10,20,16,41,14.70
2018,10,20,16,42,14.70
2018,10,20,16,43,14.70
2018,10,20,16,44,14.80
2018,10,20,16,45,14.80
2018,10,20,16,46,14.80
2018,10,20,16,47,14.80
2018,10,20,16,48,14.80
2018,10,20,16,49,14.80
2018,10,20,16,50,14.80
2018,10,20,16,51,14.80
2018,10,20,16,52,14.80
2018,10,20,16,53,14.80
2018,10,20,16,54,14.80
2018,10,20,16,55,14.80
2018,10,20,16,56,14.80
2018,10,20,16,57,14.80
2018,10,20,16,58,14.80
2018,10,20,16,59,14.70
2018,10,20,17,00,14.70
2018,10,20,17,01,14.60
2018,10,20,17,02,14.60
2018,10,20,17,03,14.60
2018,10,20,17,04,14.50
2018,10,20,17,05,14.50
2018,10,20,17,06,14.40
2018,10,20,17,07,14.40
2018,10,20,17,08,14.40
2018,10,20,17,09,14.40
2018,10,20,17,10,14.40
2018,10,20,17,11,14.40
2018,10,20,17,12,14.50
2018,10,20,17,13,14.50
2018,10,20,17,14,14.50
2018,10,20,17,15,14.60
2018,10,20,17,16,14.60
2018,10,20,17,17,14.60
2018,10,20,17,18,14.70
2018,10,20,17,19,14.70
2018,10,20,17,20,14.80
2018,10,20,17,21,14.80
2018,10,20,17,22,14.80
2018,10,20,17,23,14.80
2018,10,20,17,24,14.80
2018,10,20,17,25,14.80
2018,10,20,17,26,14.80
2018,10,20,17,27,14.80
2018,10,20,17,28,14.90
2018,10,20,17,29,14.90
2018,10,20,17,30,14.90
2018,10,20,17,31,14.90
2018,10,20,17,32,14.90
2018,10,20,17,33,14.90
2018,10,20,17,34,14.90
2018,10,20,17,35,14.90
2018,10,20,17,36,14.90
2018,10,20,17,37,14.90
2018,10,20,17,38,14.90
2018,10,20,17,39,14.90
2018,10,20,17,40,14.90
2018,10,20,17,41,14.90
2018,10,20,17,42,14.80
2018,10,20,17,43,14.80
2018,10,20,17,44,14.70
2018,10,20,17,45,14.70
2018,10,20,17,46,14.60
2018,10,20,17,47,14.40